TimeCDT,TemperatureF,Dew PointF,Humidity,Sea Level PressureIn,VisibilityMPH,Wind Direction,Wind SpeedMPH,Gust SpeedMPH,PrecipitationIn,Events,Conditions,WindDirDegrees,DateUTC
12:54 AM,36.0,33.1,89,30.14,10.0,East,5.8,-,N/A,,Clear,100,2012-11-03 05:54:00
1:54 AM,37.0,36.0,96,30.11,10.0,East,11.5,-,N/A,,Mostly Cloudy,80,2012-11-03 06:54:00
2:54 AM,39.0,36.0,89,30.12,10.0,East,10.4,-,N/A,,Overcast,90,2012-11-03 07:54:00
3:54 AM,39.0,37.0,93,30.13,10.0,East,11.5,-,0.00,Rain,Light Rain,100,2012-11-03 08:54:00
4:54 AM,39.0,37.0,93,30.12,8.0,ESE,8.1,-,0.05,Rain,Rain,110,2012-11-03 09:54:00
5:54 AM,39.0,37.9,96,30.13,10.0,East,12.7,-,0.10,Rain,Light Rain,100,2012-11-03 10:54:00
6:54 AM,39.0,37.9,96,30.14,10.0,East,11.5,-,N/A,,Overcast,100,2012-11-03 11:54:00
7:54 AM,39.0,37.9,96,30.17,10.0,East,8.1,-,N/A,,Overcast,80,2012-11-03 12:54:00
8:54 AM,39.0,37.9,96,30.16,10.0,East,10.4,20.7,0.04,Rain,Light Rain,90,2012-11-03 13:54:00
9:54 AM,39.0,37.9,96,30.14,10.0,ESE,13.8,-,0.00,,Overcast,110,2012-11-03 14:54:00
10:43 AM,39.2,39.2,100,30.14,10.0,East,11.5,-,N/A,,Overcast,90,2012-11-03 15:43:00
10:54 AM,41.0,39.0,93,30.15,10.0,East,11.5,-,N/A,,Overcast,90,2012-11-03 15:54:00
11:34 AM,41.0,39.2,93,30.15,10.0,East,10.4,-,N/A,,Overcast,90,2012-11-03 16:34:00
11:46 AM,42.8,39.2,87,30.14,10.0,ENE,10.4,-,N/A,,Overcast,70,2012-11-03 16:46:00
11:54 AM,42.1,39.9,92,30.15,10.0,ENE,10.4,-,N/A,,Overcast,70,2012-11-03 16:54:00
12:27 PM,42.8,39.2,87,30.14,10.0,NE,11.5,-,N/A,,Overcast,50,2012-11-03 17:27:00
12:54 PM,42.1,39.9,92,30.15,10.0,NE,13.8,-,N/A,,Overcast,50,2012-11-03 17:54:00
1:54 PM,43.0,39.9,89,30.15,10.0,NE,13.8,-,N/A,,Overcast,50,2012-11-03 18:54:00
2:54 PM,43.0,39.9,89,30.15,10.0,NE,12.7,-,N/A,,Overcast,40,2012-11-03 19:54:00
3:54 PM,43.0,39.0,86,30.15,10.0,NE,12.7,-,N/A,,Overcast,50,2012-11-03 20:54:00
4:54 PM,42.1,37.9,85,30.16,10.0,NE,11.5,-,N/A,,Overcast,50,2012-11-03 21:54:00
5:54 PM,41.0,37.9,89,30.17,10.0,NE,10.4,-,N/A,,Overcast,50,2012-11-03 22:54:00
6:54 PM,41.0,37.9,89,30.19,10.0,NE,6.9,-,N/A,,Overcast,40,2012-11-03 23:54:00
7:54 PM,37.0,34.0,89,30.20,10.0,North,6.9,-,N/A,,Partly Cloudy,10,2012-11-04 00:54:00
8:54 PM,35.1,34.0,96,30.20,10.0,NNE,4.6,-,N/A,,Clear,20,2012-11-04 01:54:00
9:54 PM,35.1,34.0,96,30.22,10.0,North,3.5,-,N/A,,Clear,10,2012-11-04 02:54:00
10:54 PM,35.1,34.0,96,30.22,10.0,North,3.5,-,N/A,,Clear,350,2012-11-04 03:54:00
11:54 PM,33.1,30.9,92,30.22,10.0,North,6.9,-,N/A,,Clear,10,2012-11-04 04:54:00